Overview Statistics Trail Chart Weather Telemetry Raw packets
 

This is the latest recevied weather packets stored in our database for station/object KB1WCR. If no packets are shown the sender has not sent any weather packets the latest 10 day(s).

<< 34 35 36 37 38 39 40 >>
Time Temp. Humidity Pressure Rain* Wind** Luminosity Snow
1788179583 18.33° C 74% 1020.4 hPa 0 mm - 304 W/m² -
1788179277 17.78° C 76% 1020.4 hPa 0 mm - 288 W/m² -
1788178973 17.78° C 79% 1020.2 hPa 0 mm - 274 W/m² -
1788178673 17.78° C 77% 1020.5 hPa 0 mm - 225 W/m² -
1788178370 17.22° C 80% 1020.3 hPa 0 mm - 171 W/m² -
1788178065 16.67° C 83% 1020.3 hPa 0 mm - 143 W/m² -
1788177759 17.22° C 83% 1020.4 hPa 0 mm - 121 W/m² -
1788177454 16.67° C 84% 1020.3 hPa 0 mm - 106 W/m² -
1788177151 15.56° C 91% 1020.6 hPa 0 mm - 94 W/m² -
1788176850 15° C 91% 1020.5 hPa 0 mm - 85 W/m² -
1788176549 14.44° C 93% 1020.6 hPa 0 mm - 78 W/m² -
1788176245 13.33° C 97% 1020.4 hPa 0 mm - 73 W/m² -
1788175939 12.22° C 99% 1020.3 hPa 0 mm - 68 W/m² -
1788175639 12.22° C 99% 1020.5 hPa 0 mm - 30 W/m² -
1788175334 11.67° C 99% 1020.5 hPa 0 mm - 30 W/m² -
1788175029 11.67° C 99% 1020.2 hPa 0 mm - 28 W/m² -
1788174726 11.67° C 99% 1020.2 hPa 0 mm - 31 W/m² -
1788174421 11.11° C 99% 1020.4 hPa 0 mm - 44 W/m² -
1788174115 11.11° C 99% 1020.2 hPa 0 mm - 32 W/m² -
1788173809 10.56° C 99% 1020.2 hPa 0 mm - 25 W/m² -
1788173505 10.56° C 99% 1020 hPa 0 mm - 22 W/m² -
1788173200 10.56° C 99% 1020.1 hPa 0 mm - 20 W/m² -
1788172896 10.56° C 99% 1019.7 hPa 0 mm - 19 W/m² -
1788172591 10° C 99% 1019.8 hPa 0 mm - 17 W/m² -
1788172287 10.56° C 99% 1019.8 hPa 0 mm - 14 W/m² -

* Rain latest hour (hover to see other rain measurements)
** Current wind speed in m/s (hover to see current wind gust speed)